User: anonymous   Login
Location: Caltech
(34.1382°N, 118.1253°W)
Time: 05:05:12
(UTC-07:00)
Language:

DELTA 2 R/B (1) - Orbit

View from above orbital plane
View from above orbital plane
View from above satellite
View from above satellite

Ground track
Ground track

The orbit data is extracted from the following two-line orbital elements,

1 27665U 03005C   16120.15319836 -.00000046  00000-0  15730-4 0  9991
2 27665  39.5763  58.3794 0008099 103.5138  21.4469 14.28404187691713
Epoch (UTC): 29 April 2016 03:40:36
Eccentricity: 0.0008099
inclination: 39.5763°
perigee height: 791 km
apogee height: 803 km
right ascension of ascending node: 58.3794°
argument of perigee: 103.5138°
revolutions per day: 14.28404187
mean anomaly at epoch: 21.4469°
orbit number at epoch: 69171

The dashed part of the orbit path shows where the satellite is in the earth's shadow,  

DLR